Wind_Speed
14 15 16 17 18 18 19 19 20 21 22 23 23 24 24 24 25 25 25 25 26 27 27 28 28 28 28 29 29 29 30 30 30 30 31 32 32 33
16 16 17 18 18 19 20 20 21 22 22 23 25 25 25 26 25 25 26 27 28 28 29 29 30 31 31 31 31 31 31 31 32 32 33 33 34 34
17 17 18 18 19 19 19 20 21 22 23 25 26 26 26 26 26 28 29 29 29 30 31 31 31 32 33 34 34 33 33 34 35 35 36 37 37 37
18 19 19 19 20 20 20 21 22 23 24 25 27 27 27 28 28 29 30 30 31 31 32 33 34 34 34 35 34 34 35 36 37 37 38 38 38 38
19 19 20 20 21 21 22 23 24 25 26 26 27 28 28 28 29 30 30 30 31 31 32 32 33 34 35 35 35 35 36 37 37 38 38 38 39 39
20 20 20 21 22 22 23 24 26 27 27 28 28 29 29 30 30 30 30 31 31 31 32 33 33 33 33 35 35 36 37 37 39 40 40 40 41 41
21 21 22 23 23 24 25 26 27 28 28 29 30 30 30 31 31 32 32 32 32 33 34 34 34 35 35 36 37 37 38 39 39 40 41 41 41 42
22 23 24 25 25 26 27 28 29 30 30 30 30 31 31 32 32 32 33 33 34 34 35 35 36 36 36 35 36 37 38 39 40 41 41 41 42 42
24 25 25 26 26 27 28 29 29 30 30 30 31 31 32 32 33 34 35 36 36 36 37 37 37 37 36 37 38 39 39 40 41 41 42 42 42 43
24 25 26 27 28 28 28 29 30 30 31 32 33 33 33 33 34 35 36 36 37 37 38 38 38 38 38 39 39 39 40 41 41 42 42 42 42 42
26 27 28 28 29 30 30 31 32 32 33 33 34 34 34 35 35 35 36 37 37 37 37 37 38 38 38 38 39 39 40 41 41 41 42 42 42 42
27 28 29 30 31 32 32 33 33 34 34 34 34 35 35 36 36 37 37 37 37 37 37 37 38 38 38 38 38 39 39 39 40 40 41 42 42 42
29 29 30 31 32 32 33 33 34 34 34 34 34 34 35 36 37 37 37 37 36 36 36 37 37 37 37 38 38 38 38 38 39 39 39 40 40 39
31 31 31 31 32 33 33 33 33 33 34 34 34 34 35 35 35 35 35 36 35 35 35 36 36 36 36 36 36 37 37 37 38 38 37 37 37 37
32 32 32 31 32 33 33 33 33 33 33 33 34 34 34 34 34 34 34 33 33 34 34 35 35 35 35 35 36 36 36 36 37 37 36 35 35 34
32 32 32 33 34 34 34 33 33 33 33 33 33 34 33 33 33 33 33 33 33 33 34 34 35 35 35 35 35 34 35 35 35 35 34 34 33 33
33 33 33 34 35 35 34 34 34 33 33 34 34 33 33 33 33 33 33 33 33 33 33 33 33 34 34 34 34 34 34 34 33 33 33 32 32 32
34 34 34 35 34 34 34 34 33 34 34 34 34 33 33 32 33 33 33 33 33 33 33 33 32 33 33 32 32 32 32 32 32 32 32 31 31 31
34 34 35 35 34 33 33 33 33 33 33 33 33 32 32 32 32 32 32 33 33 32 31 31 31 30 30 30 30 30 30 30 31 30 30 31 30 30
33 33 33 32 32 32 32 32 32 32 32 32 32 31 31 31 31 31 31 31 30 30 29 29 28 29 29 29 29 29 29 30 30 29 29 29 29 29
32 31 31 31 31 32 32 31 31 31 31 31 31 31 30 30 30 29 29 28 28 28 28 28 28 28 28 29 29 28 28 28 28 28 28 27 27 27
30 30 30 30 31 31 30 31 31 31 31 31 30 29 29 28 28 28 28 28 27 27 27 27 28 28 28 28 28 28 27 27 27 27 27 26 26 26
29 29 30 30 31 30 30 31 31 31 31 30 28 28 27 26 26 27 27 27 27 27 27 27 27 27 28 28 27 27 26 26 25 25 25 25 25 25
Wind_Direction
275 277 278 279 283 283 283 285 285 288 286 284 284 285 287 287 288 286 286 288 287 287 287 287 287 286 285 286 286 285 284 283 282 282 283 282 283 283
277 280 280 281 282 284 286 286 287 290 291 288 286 287 288 288 288 286 286 287 286 287 288 289 288 286 286 287 285 285 285 283 283 284 283 282 283 283
278 281 283 287 288 287 287 287 290 291 291 292 291 290 290 290 288 287 287 288 287 286 286 288 289 288 286 285 285 284 283 282 283 283 283 283 284 284
279 282 283 286 289 288 289 290 290 291 292 293 293 292 292 292 291 289 289 290 290 289 288 288 288 288 287 286 285 283 283 284 284 284 284 285 285 284
282 283 285 287 289 289 289 290 291 293 293 292 293 293 293 293 292 291 291 292 291 291 290 290 291 291 290 289 286 285 286 286 286 285 284 284 285 285
285 286 287 288 289 292 292 292 292 293 293 293 293 293 293 292 290 291 292 292 292 291 290 291 292 292 292 291 289 288 287 286 286 286 285 285 285 285
285 285 286 287 289 290 291 292 293 294 294 294 293 293 293 293 291 290 291 291 291 291 291 291 290 290 289 289 289 289 288 287 286 287 287 286 286 285
285 286 287 288 289 291 292 293 294 295 295 294 294 294 293 293 292 291 290 290 290 290 290 289 290 290 289 289 289 290 290 290 289 289 288 287 286 285
288 289 289 291 292 292 293 296 296 296 295 294 296 296 295 295 294 292 291 290 290 289 289 290 290 291 291 291 291 291 291 290 290 290 289 288 288 287
292 293 293 293 293 295 296 296 296 295 295 295 296 295 295 295 294 293 291 291 290 290 290 290 291 291 291 290 291 291 291 291 291 290 290 290 290 289
296 296 296 295 295 296 296 297 297 297 296 295 294 294 293 293 294 294 292 290 290 290 290 290 291 292 291 291 291 291 291 292 292 292 292 292 291 291
298 298 298 299 298 298 297 296 296 296 296 295 295 295 294 294 294 295 293 292 291 291 291 291 292 293 292 292 293 293 294 294 294 294 294 293 292 292
297 298 299 300 299 300 299 298 296 295 296 296 295 296 295 295 295 295 294 293 293 293 293 293 294 294 294 295 296 296 296 296 296 296 295 294 294 293
299 300 300 299 299 300 300 299 298 298 297 298 297 297 298 298 298 298 297 296 295 295 295 295 296 296 297 298 298 298 298 298 298 297 297 296 295 294
300 300 301 301 302 301 302 301 300 299 299 299 299 300 300 300 300 300 298 298 298 297 296 296 297 298 299 300 300 300 299 299 299 299 298 297 296 295
300 300 300 300 301 301 301 301 301 300 300 300 300 301 301 301 301 300 299 299 298 299 299 298 299 300 301 301 301 301 301 302 302 302 302 300 299 299
299 299 299 300 300 300 299 299 299 299 300 300 300 300 300 301 302 301 300 300 300 300 300 300 300 300 300 301 301 302 302 303 303 303 304 304 303 302
298 297 297 298 299 299 299 299 299 299 300 300 300 301 301 301 302 301 301 301 301 301 300 301 301 301 302 302 303 303 304 304 305 305 306 306 305 304
297 297 298 298 299 299 300 300 300 300 301 301 301 302 303 302 302 302 302 302 302 302 302 303 303 303 304 305 305 306 306 306 307 308 308 308 308 307
299 300 300 299 300 301 301 301 300 300 300 301 301 302 302 303 303 303 303 302 302 304 305 306 307 307 308 309 309 309 309 309 309 309 310 310 310 310
300 301 301 301 302 302 302 302 302 302 302 302 303 304 304 304 305 305 304 305 305 306 306 308 309 310 310 310 311 311 311 311 312 312 312 312 312 312
302 302 303 303 303 303 303 303 303 303 303 304 304 305 306 307 307 307 306 307 308 308 307 308 309 310 311 311 312 312 312 312 312 313 313 314 315 316
301 302 302 303 303 303 302 303 303 304 304 305 305 306 307 308 308 309 309 309 310 310 309 309 310 311 312 312 312 312 311 312 312 313 314 315 316 317
Height
5890 5890 5890 5889 5889 5888 5888 5887 5887 5886 5885 5883 5882 5881 5880 5879 5878 5876 5875 5874 5872 5871 5869 5868 5867 5865 5864 5862 5861 5859 5858 5856 5855 5853 5852 5851 5849 5848
5887 5886 5886 5885 5884 5884 5883 5882 5881 5880 5879 5877 5876 5875 5874 5872 5871 5869 5868 5867 5865 5864 5862 5860 5859 5857 5856 5854 5853 5851 5849 5848 5846 5845 5843 5841 5840 5838
5882 5882 5882 5881 5880 5879 5878 5877 5876 5875 5874 5872 5870 5869 5867 5866 5864 5863 5861 5860 5858 5856 5854 5853 5851 5849 5847 5845 5844 5842 5840 5838 5837 5835 5833 5831 5829 5827
5878 5877 5877 5876 5875 5874 5873 5872 5871 5869 5868 5866 5864 5862 5861 5859 5857 5855 5854 5852 5850 5848 5846 5844 5843 5840 5838 5836 5834 5832 5830 5828 5827 5825 5823 5820 5819 5816
5873 5873 5872 5871 5870 5869 5867 5866 5865 5863 5861 5860 5858 5856 5854 5852 5850 5848 5846 5844 5842 5840 5837 5835 5834 5831 5829 5826 5824 5822 5820 5818 5816 5814 5812 5809 5807 5805
5869 5868 5867 5866 5865 5863 5862 5860 5859 5857 5855 5853 5851 5849 5846 5844 5842 5840 5838 5836 5834 5832 5830 5827 5825 5822 5820 5817 5814 5812 5810 5808 5805 5803 5800 5798 5796 5793
5864 5863 5862 5861 5859 5858 5856 5854 5852 5850 5848 5846 5844 5841 5839 5837 5835 5832 5830 5828 5826 5823 5821 5819 5816 5813 5810 5807 5804 5802 5799 5797 5794 5791 5788 5786 5783 5781
5858 5857 5856 5854 5853 5851 5849 5847 5845 5843 5841 5839 5836 5834 5831 5829 5826 5824 5822 5819 5817 5815 5811 5809 5806 5804 5801 5797 5794 5791 5788 5785 5782 5780 5776 5774 5771 5768
5852 5851 5849 5848 5846 5844 5842 5840 5838 5835 5833 5831 5828 5826 5823 5820 5818 5815 5812 5810 5808 5805 5802 5799 5796 5793 5790 5787 5784 5781 5778 5774 5771 5767 5764 5761 5758 5755
5846 5844 5843 5841 5839 5837 5835 5833 5830 5828 5825 5823 5820 5817 5815 5812 5809 5806 5803 5800 5797 5795 5791 5789 5786 5783 5780 5776 5773 5769 5766 5763 5759 5756 5753 5749 5746 5743
5840 5838 5836 5834 5832 5830 5828 5825 5822 5820 5817 5814 5811 5808 5805 5803 5800 5797 5793 5790 5788 5785 5781 5778 5775 5772 5768 5765 5762 5758 5755 5751 5747 5744 5741 5737 5734 5730
5833 5831 5829 5826 5824 5821 5819 5817 5814 5811 5808 5805 5802 5799 5796 5793 5790 5786 5783 5780 5777 5774 5771 5768 5764 5761 5758 5755 5751 5747 5743 5739 5736 5732 5728 5725 5721 5718
5826 5824 5821 5818 5816 5813 5811 5808 5805 5802 5799 5796 5793 5790 5786 5783 5780 5776 5773 5770 5767 5763 5760 5757 5754 5750 5747 5744 5740 5736 5732 5729 5725 5721 5717 5713 5709 5706
5819 5816 5814 5811 5808 5805 5802 5799 5796 5793 5790 5787 5784 5781 5777 5774 5770 5766 5763 5759 5756 5753 5750 5747 5743 5740 5736 5733 5730 5726 5722 5718 5714 5710 5706 5702 5698 5695
5811 5809 5806 5803 5800 5797 5794 5790 5787 5784 5781 5778 5775 5771 5768 5764 5760 5757 5753 5750 5747 5743 5740 5737 5734 5730 5726 5723 5719 5715 5712 5707 5703 5699 5695 5692 5688 5685
5803 5801 5798 5795 5792 5789 5785 5782 5779 5775 5772 5769 5765 5762 5758 5755 5751 5748 5744 5741 5738 5734 5731 5727 5724 5720 5716 5713 5709 5705 5701 5697 5693 5689 5685 5682 5678 5675
5795 5793 5790 5787 5784 5780 5777 5773 5770 5767 5763 5760 5756 5753 5749 5746 5742 5739 5735 5732 5729 5725 5722 5718 5714 5711 5707 5704 5700 5696 5692 5688 5684 5680 5676 5672 5669 5665
5787 5784 5781 5778 5775 5771 5768 5764 5761 5758 5754 5750 5747 5743 5740 5737 5733 5730 5727 5723 5720 5716 5713 5709 5705 5702 5698 5694 5691 5687 5683 5679 5675 5671 5667 5664 5660 5656
5778 5775 5772 5769 5765 5762 5759 5755 5752 5749 5745 5742 5738 5735 5731 5728 5725 5721 5718 5714 5711 5707 5704 5700 5697 5693 5690 5686 5682 5678 5674 5671 5667 5663 5659 5655 5652 5648
5769 5766 5763 5760 5757 5753 5750 5746 5743 5740 5736 5733 5729 5726 5723 5719 5716 5712 5709 5705 5702 5699 5695 5692 5688 5685 5681 5678 5674 5670 5666 5663 5659 5655 5652 5648 5644 5640
5761 5758 5755 5751 5748 5745 5741 5738 5735 5731 5728 5725 5721 5717 5714 5711 5707 5704 5701 5697 5694 5691 5688 5684 5681 5677 5673 5670 5667 5663 5659 5655 5651 5648 5644 5641 5637 5633
5753 5750 5746 5743 5740 5737 5734 5730 5727 5723 5720 5716 5713 5709 5706 5703 5700 5697 5693 5690 5687 5684 5680 5677 5674 5670 5667 5663 5659 5656 5653 5649 5645 5641 5637 5634 5630 5626
5745 5742 5739 5735 5732 5729 5726 5722 5719 5716 5712 5708 5705 5702 5699 5696 5693 5690 5687 5683 5680 5677 5673 5670 5667 5663 5660 5656 5652 5649 5646 5642 5639 5635 5632 5627 5624 5620